Location: downtown San Diego
(32.7310°N, 117.1990°W)
Time: 13:42:40
(UTC-08:00)

Nadezhda 1 Rocket - Pass Details

Date: 12 July 2018
Orbit: 940 x 1006 km, 83.0° (Epoch: 08 December)

Event Time Altitude Azimuth Distance (km) Brightness Sun altitude
Exits shadow 21:42:56 14° 183° (S) 2,474 5.8 -18.8°
Maximum altitude 21:48:31 88° 93° (E) 1,002 4.0 -19.7°
Drops below altitude 10° 21:54:51 10° 6° (N) 2,750 6.9 -20.6°
Sets 21:57:21 0° 7° (N) 3,692 7.6 -21.0°
